Regional Weather Roundup
Issued by NWS

Current Version | Previous Version | Text Only | Print | Product List | Glossary On
Versions: 1 2 3 4 5 6 7 8 9 10 11 12 13 14 15 16 17 18 19 20 21 22 23 24 25 26 27 28 29 30 31 32 33 34 35 36 37 38 39 40 41 42 43 44 45 46 47 48 49 50
000
ASUS44 KFWD 261315
RWRTX
NORTH TEXAS HOURLY WEATHER ROUNDUP
NATIONAL WEATHER SERVICE FORT WORTH TX
800 AM CDT THU MAY 26 2016

NOTE: "FAIR" INDICATES FEW OR NO CLOUDS BELOW 12,000 FEET WITH NO
SIGNIFICANT WEATHER AND/OR OBSTRUCTIONS TO VISIBILITY.

TXZ118-119-261400-
DALLAS/FORT WORTH METROPLEX

CITY           SKY/WX    TMP DP  RH WIND       PRES   REMARKS
DFW AIRPORT    CLOUDY    79  73  82 S18G25    29.90R
DALLAS LOVE    CLOUDY    78  73  84 S15G24    29.91S
FTW MEACHAM    CLOUDY    79  73  82 S17G31    29.91R
DAL-EXECUTIVE  LGT RAIN  76  72  87 S10       29.92S
FTW-ALLIANCE   CLOUDY    77  73  87 S22G30    29.88F
FTW-NAS-JRB    CLOUDY    78  73  84 S21       29.91S
FTW-SPINKS     LGT RAIN  77  73  88 S15G22    29.93F
ARLINGTON      LGT RAIN  80  73  79 S13G23    29.92R
GRAND PRAIRIE  MOSUNNY   77  73  88 S161      29.93S
ADDISON        CLOUDY    79  75  89 S17G24    29.93S FOG
MESQUITE       LGT RAIN  75  73  94 S15       29.93F FOG
LANCASTER      CLOUDY    76  71  84 S7        29.93F
$$

TXZ091>094-102>105-117-120-121-131>134-261400-
NORTH CENTRAL TEXAS

CITY           SKY/WX    TMP DP  RH WIND       PRES   REMARKS
SHRMAN/DENISON CLOUDY    73  68  83 SE8       29.91F
GAINESVILLE    CLOUDY    75  72  89 SE13      29.90F
BOWIE          CLOUDY    75  72  89 SE7       29.86F
BRIDGEPORT     CLOUDY    76  74  93 S5        29.89R
DECATUR        CLOUDY    75  73  92 S17G23    29.87F
DENTON         LGT RAIN  77  72  84 S21G29    29.88F
MCKINNEY       CLOUDY    77  73  87 S18       29.90F
GREENVILLE     CLOUDY    77  72  83 S14G24    29.93F
ROCKWALL       CLOUDY    76  74  92 S14G24    29.92R
TERRELL        CLOUDY    77  73  87 S14       29.93F
WAXAHACHIE     LGT RAIN  75  75 100 S12G18    29.95R
CLEBURNE       DRIZZLE   75  75 100 S17G23    29.95S
GRANBURY       LGT RAIN  77  74  89 SE12      29.91R
$$

TXZ083>090-098>101-113>116-127>130-139>142-154-155-261400-
WESTERN NORTH TEXAS

CITY           SKY/WX    TMP DP  RH WIND       PRES   REMARKS
WICHITA FALLS  CLOUDY    76  73  91 SE7       29.83F FOG
WF-KICKAPOO    CLOUDY    77  73  86 E9        29.85F
VERNON         CLOUDY    76  72  85 SE14      29.84S
ABILENE        CLOUDY    74  59  59 SW7       29.90R
ABILENE-DYESS  PTSUNNY   72  60  64 SE9       29.87S
BRECKENRIDGE   CLOUDY    78  71  79 S12       29.86R
GRAHAM         CLOUDY    76  75  96 SE13G18   29.83R
MINERAL WELLS  CLOUDY    75  73  93 SE21G28   29.85F
STEPHENVILLE   CLOUDY    75  72  91 SE14G20   29.92F
COMANCHE       CLOUDY    70  64  80 S18       29.89F
BROWNWOOD      CLOUDY    72  66  83 SE14G20   29.90S
COLEMAN        CLOUDY    71  65  81 S12       29.90R
$$

TXZ143>147-156>162-174-175-261400-
CENTRAL TEXAS

CITY           SKY/WX    TMP DP  RH WIND       PRES   REMARKS
WACO           TSTM      70  67  90 SW15G23   29.97R FOG
WACO-TSTC      TSTM      77  75  94 SE5       29.94F
WACO-MCGREGOR  RAIN     N/A N/A N/A E12         N/A
HILLSBORO      TSTM      75  73  95 S10       29.95R
CORSICANA      LGT RAIN  78  73  84 S12       29.96F
MEXIA          CLOUDY    75  74  98 SE10      29.96F
HEARNE         CLOUDY    77  75  94 CALM      29.98R
CAMERON        CLOUDY    78  75  91 SE7       29.96R
TEMPLE         CLOUDY    77  75  94 S8        29.95S
KILLEEN        LGT RAIN  75  73  94 SE3       29.95R FOG
KILLEEN-SKYLRK CLOUDY    76  75  97 SE7       29.94F FOG
FORT HOOD      LGT RAIN  73  73 100 NE7       29.94S FOG
GATESVILLE     CLOUDY    68  66  94 NW14G23   30.00R
HAMILTON       TSTM      70  67  90 E14       29.93F
LAMPASAS       CLOUDY    76  75  97 SE3       29.95S FOG
$$

TXZ095>097-106>112-122>126-135>138-148>153-164>167-261400-
EAST TEXAS

CITY           SKY/WX    TMP DP  RH WIND       PRES   REMARKS
PARIS          CLOUDY    75  66  73 S9        29.95F
SULPHUR SPRNGS CLOUDY    77  73  87 S10       29.96F
MOUNT PLEASANT CLOUDY    76  74  92 S8G16     29.98F
GILMER         CLOUDY    76  73  90 SE7       29.98S
MINEOLA        CLOUDY    77  73  88 S7        29.97F
TYLER          CLOUDY    78  72  81 S10       29.97F
LONGVIEW       PTSUNNY   76  74  93 S10       29.98F
MARSHALL       CLOUDY    75  72  89 S7        30.01F
ATHENS         CLOUDY    75  75 100 S8        29.96S
PALESTINE      CLOUDY    77  74  92 SE5       30.00R
JACKSONVILLE   CLOUDY    76  74  96 S10       30.02S
HENDERSON      CLOUDY    76  73  89 S7        30.00F
CENTER         CLOUDY    79  77  95 SE7       30.00F
NACOGDOCHES    CLOUDY    75  73  94 S7        30.01R
LUFKIN         CLOUDY    77  74  90 SE9       30.00R
$$

SUPPLEMENTAL OBSERVATIONS (CENTRAL)

CITY           SKY/WX    TMP DP  RH WIND       PRES   REMARKS
LAKE TEXOMA      N/A     75  72  88 SE7         N/A
CADDO GRASSLND   N/A     77  73  88 S5          N/A
PAT MAYSE LAKE   N/A     75  73  94 SE10        N/A
GREENVILLE       N/A     77  72  83 S8G17       N/A
LAKE LIMESTONE   N/A     77  73  88 SE6         N/A
MCGREGOR         N/A     68  63  83 NW2G16      N/A
TEMPLE           N/A     75  72  88 SE6         N/A
$$

SUPPLEMENTAL OBSERVATIONS (WEST)

CITY           SKY/WX    TMP DP  RH WIND       PRES   REMARKS
MILLERS CREEK    N/A     75  72  88 S7G15       N/A
POSSUM KINGDOM   N/A     75  72  88 SE10G20     N/A
LBJ GRASSLAND    N/A     75  72  88 CALM        N/A
GRANBURY         N/A     75  70  83 S14         N/A
COMANCHE         N/A     72  61  68 S14G22      N/A
HAMBY            N/A     75  59  57 S7G15       N/A
IVIE RESERVOIR   N/A     72  66  83 SE8         N/A
COLORADO BEND    N/A     75  70  83 S7          N/A
$$

SUPPLEMENTAL OBSERVATIONS (EAST)

CITY           SKY/WX    TMP DP  RH WIND       PRES   REMARKS
CLARKSVILLE      N/A     75  72  88 S10         N/A
TEXARKANA        N/A     77  73  88 S5G13       N/A
LINDEN           N/A     77  73  88 S5          N/A
CADDO LAKE       N/A     77  72  83 S3          N/A
GILMER           N/A     77  73  88 S7          N/A
HENDERSON        N/A     77  73  88 S6          N/A
N SABINE NF      N/A     77  73  88 MISG        N/A
S SABINE NF      N/A     79  73  83 SE3         N/A
$$

SUPPLEMENTAL OBSERVATIONS ARE A COLLECTION OF AUTOMATED INSTRUMENTS
THAT ARE MAINTAINED BY A VARIETY OF FEDERAL AND STATE AGENCIES.
CERTAIN ELEMENTS...SUCH AS HUMIDITY VALUES AND SUSTAINED WIND
SPEEDS...MAY BE APPROXIMATED.




USA.gov is the U.S. government's official web portal to all federal, state and local government web resources and services.